�������l�o���
Date,Time,MP-1(��Sv/h),MP-2(��Sv/h),MP-3(��Sv/h),MP-4(��Sv/h),MP-5(��Sv/h),MP-6(��Sv/h),MP-7(��Sv/h),����,����(m/s),���J
2020/08/06,00:00,0.172,0.157,0.254,0.246,0.244,0.134,0.083,��,5.9,��
2020/08/06,00:10,0.169,0.157,0.253,0.246,0.243,0.135,0.083,��,5.0,��
2020/08/06,00:20,0.172,0.155,0.258,0.244,0.246,0.135,0.082,��,5.4,��
2020/08/06,00:30,0.173,0.156,0.257,0.245,0.248,0.135,0.083,��쐼,4.9,��
2020/08/06,00:40,0.170,0.157,0.254,0.247,0.245,0.136,0.082,��,4.1,��
2020/08/06,00:50,0.173,0.156,0.257,0.246,0.245,0.135,0.083,��,4.0,��
2020/08/06,01:00,0.172,0.157,0.257,0.245,0.248,0.136,0.083,��쐼,3.2,��
2020/08/06,01:10,0.172,0.158,0.256,0.247,0.247,0.135,0.083,��쐼,2.7,��
2020/08/06,01:20,0.172,0.157,0.256,0.247,0.245,0.134,0.082,��,3.1,��
2020/08/06,01:30,0.173,0.157,0.258,0.245,0.247,0.136,0.083,��,3.2,��
2020/08/06,01:40,0.171,0.157,0.256,0.247,0.248,0.135,0.084,��,2.9,��
2020/08/06,01:50,0.171,0.155,0.256,0.247,0.247,0.135,0.083,��,2.4,��
2020/08/06,02:00,0.173,0.158,0.258,0.245,0.244,0.136,0.082,��,2.2,��
2020/08/06,02:10,0.171,0.157,0.257,0.246,0.247,0.136,0.084,��쐼,2.6,��
2020/08/06,02:20,0.172,0.156,0.255,0.247,0.248,0.135,0.084,��쐼,2.5,��
2020/08/06,02:30,0.172,0.157,0.257,0.245,0.245,0.135,0.084,��쐼,2.4,��
2020/08/06,02:40,0.171,0.158,0.257,0.245,0.246,0.136,0.084,��쐼,2.4,��
2020/08/06,02:50,0.172,0.156,0.255,0.248,0.249,0.135,0.083,��쐼,2.9,��
2020/08/06,03:00,0.173,0.158,0.259,0.246,0.246,0.135,0.084,��,3.7,��
2020/08/06,03:10,0.172,0.158,0.258,0.246,0.245,0.136,0.084,��쐼,3.3,��
2020/08/06,03:20,0.172,0.157,0.257,0.249,0.250,0.135,0.083,��쐼,3.4,��
2020/08/06,03:30,0.173,0.158,0.258,0.246,0.247,0.135,0.084,��쐼,3.6,��
2020/08/06,03:40,0.172,0.157,0.258,0.247,0.245,0.137,0.083,�쐼,3.6,��
2020/08/06,03:50,0.173,0.157,0.256,0.249,0.248,0.135,0.083,�쐼,2.8,��
2020/08/06,04:00,0.173,0.158,0.260,0.247,0.247,0.135,0.083,���쐼,1.6,��
2020/08/06,04:10,0.171,0.157,0.258,0.245,0.245,0.136,0.083,��,1.3,��
2020/08/06,04:20,0.173,0.157,0.256,0.249,0.248,0.135,0.084,�k��,1.7,��
2020/08/06,04:30,0.173,0.159,0.258,0.247,0.249,0.135,0.085,�k��,1.0,��
2020/08/06,04:40,0.171,0.157,0.258,0.248,0.246,0.136,0.084,�k�k��,0.9,��
2020/08/06,04:50,0.174,0.160,0.257,0.248,0.246,0.135,0.084,�k��,1.1,��
2020/08/06,05:00,0.173,0.158,0.259,0.246,0.248,0.136,0.084,�k�k��,0.8,��
2020/08/06,05:10,0.172,0.157,0.257,0.245,0.247,0.136,0.084,-,CALM,��
2020/08/06,05:20,0.175,0.159,0.256,0.249,0.247,0.136,0.084,-,CALM,��
2020/08/06,05:30,0.173,0.157,0.260,0.247,0.249,0.136,0.085,-,CALM,��
2020/08/06,05:40,0.172,0.157,0.258,0.246,0.246,0.136,0.083,�쐼,0.6,��
2020/08/06,05:50,0.174,0.157,0.256,0.248,0.245,0.135,0.084,���쐼,0.9,��
2020/08/06,06:00,0.172,0.157,0.260,0.245,0.247,0.137,0.084,-,CALM,��
2020/08/06,06:10,0.173,0.158,0.257,0.245,0.247,0.137,0.084,-,CALM,��
2020/08/06,06:20,0.174,0.158,0.256,0.248,0.246,0.136,0.084,-,CALM,��
2020/08/06,06:30,0.172,0.158,0.258,0.248,0.245,0.136,0.084,-,CALM,��
2020/08/06,06:40,0.172,0.157,0.259,0.246,0.245,0.136,0.084,��쐼,1.3,��
2020/08/06,06:50,0.175,0.158,0.256,0.244,0.249,0.136,0.085,��쐼,3.1,��
2020/08/06,07:00,0.173,0.159,0.255,0.244,0.247,0.135,0.084,��쐼,2.7,��
2020/08/06,07:10,0.172,0.158,0.258,0.248,0.246,0.136,0.084,��,2.3,��
2020/08/06,07:20,0.172,0.157,0.259,0.249,0.245,0.136,0.084,��,1.3,��
2020/08/06,07:30,0.174,0.157,0.257,0.246,0.245,0.135,0.083,��쐼,1.7,��
2020/08/06,07:40,0.173,0.157,0.257,0.245,0.244,0.135,0.083,��쐼,1.9,��
2020/08/06,07:50,0.173,0.157,0.258,0.246,0.245,0.137,0.083,��쐼,2.2,��
2020/08/06,08:00,0.171,0.156,0.257,0.246,0.245,0.136,0.083,��,2.2,��
2020/08/06,08:10,0.171,0.156,0.256,0.246,0.244,0.137,0.083,��,2.8,��
2020/08/06,08:20,0.171,0.157,0.255,0.246,0.244,0.136,0.083,��,3.1,��
2020/08/06,08:30,0.170,0.156,0.256,0.245,0.244,0.134,0.083,��,4.5,��
2020/08/06,08:40,0.171,0.157,0.256,0.245,0.245,0.135,0.083,��,5.5,��
2020/08/06,08:50,0.171,0.156,0.257,0.245,0.246,0.135,0.082,��쓌,5.9,��
2020/08/06,09:00,0.171,0.158,0.257,0.246,0.247,0.135,0.083,��쓌,7.4,��
2020/08/06,09:10,0.171,0.155,0.257,0.246,0.246,0.135,0.082,��쓌,7.0,��
2020/08/06,09:20,0.171,0.157,0.257,0.246,0.247,0.134,0.083,��쓌,6.7,��
2020/08/06,09:30,0.173,0.157,0.257,0.246,0.246,0.134,0.083,��,7.3,��
2020/08/06,09:40,0.172,0.157,0.256,0.246,0.247,0.134,0.082,��쓌,8.5,��
2020/08/06,09:50,0.173,0.157,0.257,0.245,0.245,0.135,0.083,��,8.7,��
2020/08/06,10:00,0.172,0.157,0.257,0.246,0.247,0.135,0.082,��쓌,9.2,��
2020/08/06,10:10,0.171,0.157,0.257,0.246,0.247,0.134,0.083,��쓌,9.8,��
2020/08/06,10:20,0.174,0.157,0.258,0.247,0.245,0.134,0.083,��쓌,10.9,��
2020/08/06,10:30,0.172,0.156,0.257,0.246,0.246,0.135,0.083,��쓌,10.3,��
2020/08/06,10:40,0.172,0.157,0.257,0.246,0.245,0.135,0.083,��쓌,9.8,��
2020/08/06,10:50,0.172,0.157,0.257,0.247,0.245,0.135,0.083,��쓌,10.4,��
2020/08/06,11:00,0.171,0.157,0.258,0.246,0.245,0.134,0.083,��쓌,9.0,��
2020/08/06,11:10,0.171,0.157,0.257,0.246,0.245,0.134,0.082,��,10.1,��
2020/08/06,11:20,0.172,0.158,0.257,0.246,0.244,0.135,0.083,��쓌,9.0,��
2020/08/06,11:30,0.172,0.157,0.258,0.247,0.245,0.134,0.083,��,9.2,��
2020/08/06,11:40,0.172,0.158,0.257,0.247,0.245,0.136,0.082,��쓌,9.8,��
2020/08/06,11:50,0.173,0.157,0.257,0.247,0.245,0.135,0.083,��쓌,10.1,��
2020/08/06,12:00,0.172,0.158,0.257,0.246,0.246,0.135,0.083,��쓌,9.8,��
2020/08/06,12:10,0.172,0.158,0.257,0.246,0.245,0.135,0.082,��쓌,10.3,��
2020/08/06,12:20,0.172,0.157,0.258,0.247,0.246,0.136,0.082,��쓌,10.7,��
2020/08/06,12:30,0.171,0.157,0.257,0.247,0.246,0.134,0.082,��쓌,10.0,��
2020/08/06,12:40,0.171,0.156,0.256,0.247,0.244,0.135,0.082,��쓌,10.1,��
2020/08/06,12:50,0.171,0.157,0.257,0.247,0.245,0.136,0.083,��쓌,10.1,��
2020/08/06,13:00,0.172,0.156,0.257,0.247,0.244,0.136,0.082,��쓌,10.4,��
2020/08/06,13:10,0.172,0.157,0.256,0.247,0.246,0.135,0.082,��쓌,10.6,��
2020/08/06,13:20,0.172,0.156,0.257,0.246,0.246,0.135,0.082,��쓌,10.4,��
2020/08/06,13:30,0.171,0.157,0.257,0.246,0.244,0.135,0.083,��쓌,11.7,��
2020/08/06,13:40,0.171,0.155,0.256,0.246,0.245,0.135,0.082,��,12.3,��
2020/08/06,13:50,0.173,0.155,0.257,0.247,0.246,0.135,0.082,��,13.1,��
2020/08/06,14:00,0.172,0.157,0.256,0.246,0.244,0.135,0.082,��쓌,10.7,��
2020/08/06,14:10,0.172,0.157,0.257,0.247,0.246,0.135,0.082,��쓌,11.1,��
2020/08/06,14:20,0.171,0.156,0.259,0.246,0.247,0.135,0.082,��쓌,11.4,��
2020/08/06,14:30,0.172,0.157,0.257,0.246,0.245,0.135,0.082,��쓌,10.4,��
2020/08/06,14:40,0.171,0.158,0.258,0.247,0.245,0.136,0.082,��,10.4,��
2020/08/06,14:50,0.174,0.157,0.258,0.247,0.246,0.135,0.082,��,9.5,��
2020/08/06,15:00,0.174,0.156,0.257,0.245,0.245,0.136,0.082,��쓌,9.8,��
2020/08/06,15:10,0.172,0.156,0.258,0.246,0.247,0.135,0.082,��,10.9,��
2020/08/06,15:20,0.173,0.156,0.256,0.246,0.246,0.135,0.082,��,11.1,��
2020/08/06,15:30,0.173,0.157,0.257,0.248,0.246,0.136,0.082,��,10.3,��
2020/08/06,15:40,0.173,0.158,0.257,0.247,0.245,0.136,0.082,��,9.8,��
2020/08/06,15:50,0.171,0.157,0.257,0.246,0.245,0.136,0.082,��,10.0,��
2020/08/06,16:00,0.173,0.156,0.257,0.247,0.245,0.137,0.082,��,9.0,��
2020/08/06,16:10,0.173,0.157,0.257,0.246,0.246,0.135,0.082,��,10.1,��
2020/08/06,16:20,0.173,0.157,0.256,0.246,0.246,0.135,0.081,��,9.0,��
2020/08/06,16:30,0.173,0.157,0.256,0.246,0.245,0.134,0.082,��,8.5,��
2020/08/06,16:40,0.171,0.157,0.258,0.245,0.245,0.135,0.083,��,9.0,��
2020/08/06,16:50,0.171,0.155,0.256,0.246,0.245,0.135,0.082,��,7.6,��
2020/08/06,17:00,0.171,0.156,0.257,0.244,0.246,0.134,0.082,��,8.3,��
2020/08/06,17:10,0.171,0.156,0.256,0.246,0.246,0.134,0.082,��,9.2,��
2020/08/06,17:20,0.171,0.156,0.256,0.246,0.245,0.134,0.081,��,8.5,��
2020/08/06,17:30,0.171,0.156,0.256,0.249,0.245,0.134,0.082,��,7.5,��
2020/08/06,17:40,0.173,0.156,0.255,0.249,0.245,0.135,0.082,��,7.1,��
2020/08/06,17:50,0.174,0.158,0.258,0.248,0.246,0.135,0.082,��,7.4,��
2020/08/06,18:00,0.173,0.157,0.261,0.247,0.244,0.135,0.083,��,6.6,��
2020/08/06,18:10,0.172,0.157,0.260,0.246,0.244,0.135,0.082,��,5.3,��
2020/08/06,18:20,0.170,0.156,0.259,0.246,0.244,0.135,0.082,��,8.2,��
2020/08/06,18:30,0.172,0.156,0.257,0.249,0.244,0.135,0.082,��,7.9,��
2020/08/06,18:40,0.174,0.157,0.255,0.248,0.248,0.135,0.083,��,7.4,��
2020/08/06,18:50,0.173,0.159,0.259,0.248,0.248,0.135,0.082,��,8.1,��
2020/08/06,19:00,0.172,0.157,0.259,0.246,0.246,0.136,0.082,��,7.3,��
2020/08/06,19:10,0.171,0.156,0.257,0.247,0.245,0.136,0.083,��,7.2,��
2020/08/06,19:20,0.172,0.156,0.255,0.250,0.245,0.136,0.083,��,7.9,��
2020/08/06,19:30,0.172,0.158,0.259,0.248,0.247,0.134,0.082,��,8.2,��
2020/08/06,19:40,0.172,0.158,0.260,0.246,0.247,0.135,0.082,��,7.1,��
2020/08/06,19:50,0.171,0.156,0.258,0.246,0.245,0.135,0.082,��,8.4,��
2020/08/06,20:00,0.174,0.156,0.258,0.249,0.244,0.135,0.082,��,8.5,��
2020/08/06,20:10,0.173,0.158,0.258,0.249,0.248,0.136,0.082,��,7.5,��
2020/08/06,20:20,0.172,0.157,0.261,0.246,0.246,0.135,0.081,��,7.3,��
2020/08/06,20:30,0.171,0.156,0.258,0.246,0.245,0.135,0.082,��,8.3,��
2020/08/06,20:40,0.174,0.156,0.257,0.248,0.244,0.135,0.082,��,8.6,��
2020/08/06,20:50,0.173,0.157,0.258,0.248,0.247,0.135,0.082,��,7.9,��
2020/08/06,21:00,0.173,0.158,0.259,0.246,0.246,0.135,0.083,��,8.6,��
2020/08/06,21:10,0.172,0.156,0.258,0.247,0.244,0.134,0.083,��,7.3,��
2020/08/06,21:20,0.173,0.157,0.256,0.248,0.245,0.135,0.083,��,7.9,��
2020/08/06,21:30,0.172,0.158,0.260,0.247,0.249,0.135,0.082,��,8.2,��
2020/08/06,21:40,0.172,0.156,0.259,0.246,0.244,0.135,0.082,��,8.1,��
2020/08/06,21:50,0.174,0.157,0.257,0.248,0.244,0.135,0.083,��,6.6,��
2020/08/06,22:00,0.173,0.158,0.258,0.249,0.246,0.136,0.083,��쐼,6.3,��
2020/08/06,22:10,0.171,0.158,0.259,0.247,0.248,0.136,0.082,��쐼,6.8,��
2020/08/06,22:20,0.174,0.156,0.258,0.246,0.246,0.135,0.083,��,6.1,��
2020/08/06,22:30,0.173,0.157,0.257,0.249,0.243,0.135,0.084,��,6.2,��
2020/08/06,22:40,0.171,0.158,0.259,0.248,0.249,0.136,0.082,��,6.2,��
2020/08/06,22:50,0.174,0.156,0.258,0.247,0.247,0.136,0.082,��,7.4,��
2020/08/06,23:00,0.173,0.158,0.258,0.248,0.244,0.136,0.083,��쐼,6.9,��
2020/08/06,23:10,0.171,0.157,0.258,0.249,0.245,0.135,0.083,��,6.4,��
2020/08/06,23:20,0.174,0.157,0.259,0.247,0.247,0.136,0.082,��,7.3,��
2020/08/06,23:30,0.174,0.157,0.258,0.247,0.245,0.136,0.082,��,7.3,��
2020/08/06,23:40,0.172,0.158,0.258,0.248,0.243,0.135,0.082,��,8.2,��
2020/08/06,23:50,0.173,0.157,0.260,0.248,0.247,0.136,0.082,��,7.8,��
